RH
47 46 46 49 50 49 49 52 52 53 53 54 58 62 69 79 86 90 86 73 64 61 60 59 57 53 52 54 54 55 55 56 59 60 56 55 52 51 58 67 75 83 87 88 89 89 84 79 78 78 78 83 88 93 95 88 79 73 66 64 69 71 69 71 74 76 82 88 90 90 87 88 89 87
51 50 49 49 50 50 50 54 54 54 55 56 59 64 65 71 80 88 90 79 66 62 62 60 58 58 57 58 59 61 61 61 63 63 60 57 54 56 65 75 81 84 87 88 85 83 81 77 78 79 79 83 88 92 95 90 79 69 62 63 73 78 72 70 75 78 79 87 92 89 86 88 88 86
55 53 52 51 52 51 51 54 54 54 56 57 60 65 67 70 73 77 87 89 73 63 63 62 60 60 59 61 64 64 64 64 65 65 63 58 57 64 70 75 81 81 82 85 82 80 80 78 80 82 81 83 86 91 96 95 87 78 72 68 68 75 77 70 72 76 75 81 88 87 86 86 85 85
60 56 53 53 52 51 51 54 56 57 58 59 62 66 67 70 72 72 82 91 81 66 64 64 63 63 63 65 66 66 66 66 66 65 62 59 60 64 64 67 76 79 79 83 84 81 78 77 82 86 84 84 88 92 96 97 93 87 84 78 65 63 70 69 68 74 77 78 82 85 85 84 83 83
64 59 55 53 51 51 52 55 58 59 61 62 65 68 70 71 72 73 79 87 84 74 69 68 67 66 67 68 68 68 69 67 65 65 63 62 62 62 62 65 71 76 80 82 82 79 77 79 84 87 84 83 88 94 97 97 96 90 87 86 72 59 62 71 74 76 77 78 79 82 84 84 83 82
67 62 58 55 53 53 55 57 60 61 61 64 67 70 72 73 73 73 75 81 85 81 73 70 70 68 68 70 70 70 71 68 66 67 66 65 64 62 64 68 72 76 78 78 78 77 78 81 84 85 84 83 87 93 95 93 94 93 89 89 84 71 67 73 80 80 76 76 78 79 83 87 84 82
70 66 63 60 57 57 60 61 62 62 62 64 68 70 71 74 74 73 73 78 84 84 79 74 71 69 69 73 74 72 70 69 70 71 68 64 63 64 69 73 74 74 73 74 77 76 76 78 82 86 84 83 86 90 91 90 93 95 93 92 92 88 82 80 84 83 76 75 80 81 85 88 85 85
72 70 68 64 61 61 64 66 65 65 65 66 69 71 72 73 73 74 74 77 82 85 84 78 71 71 75 79 76 71 71 72 72 70 65 61 62 67 73 75 73 71 71 73 74 74 76 76 78 82 83 83 85 88 91 93 95 97 96 95 94 94 93 89 86 85 79 78 82 83 87 89 87 87
75 73 71 68 67 65 67 70 69 67 67 68 71 73 74 74 74 75 75 76 82 88 88 81 75 78 82 80 73 70 73 75 70 65 62 61 65 71 74 73 71 69 67 66 64 65 70 72 73 75 77 80 83 87 94 96 96 98 98 98 97 94 94 92 89 88 84 81 80 79 83 90 90 88
77 75 73 71 69 69 69 70 70 69 68 70 73 75 75 75 75 75 76 79 85 86 84 81 81 84 82 76 71 71 75 75 70 66 63 65 70 74 75 74 72 69 62 58 58 61 65 70 73 73 74 80 83 86 93 95 95 98 98 99 100 98 97 95 92 91 87 81 79 76 80 89 90 89
80 77 75 74 72 70 69 68 68 68 69 71 74 75 74 75 76 77 79 83 85 84 85 87 86 82 78 75 71 71 75 75 70 66 66 72 77 78 78 76 72 67 61 60 65 69 71 72 73 73 75 79 83 86 91 93 93 95 95 95 98 99 100 99 97 96 91 85 84 84 86 92 91 88
83 81 77 76 73 69 67 65 64 64 67 71 74 74 73 73 74 78 82 85 86 88 91 92 87 83 82 79 74 72 75 74 71 72 77 82 84 82 79 74 69 68 69 70 72 72 71 69 67 70 71 73 77 79 82 83 83 86 88 90 94 95 97 100 100 99 95 88 88 90 91 94 96 92
85 83 80 77 74 70 66 62 61 60 59 63 67 69 71 72 73 78 82 86 90 94 95 93 91 91 89 83 78 76 76 75 78 82 85 87 85 79 74 71 72 77 79 77 74 70 68 67 66 67 69 70 72 73 74 75 74 77 81 86 91 93 93 95 98 101 97 88 85 90 94 97 99 96
88 85 82 80 74 70 66 63 63 64 63 63 60 57 58 62 66 75 83 87 92 97 98 96 95 95 91 86 83 80 79 81 85 87 86 85 82 77 78 80 81 80 79 77 75 72 72 72 72 71 69 68 68 69 70 71 70 72 78 84 89 93 94 93 94 98 98 93 91 95 98 98 96 94
88 86 84 81 76 73 71 68 71 77 79 77 72 67 65 61 57 66 82 92 97 99 100 99 98 96 91 84 81 82 84 87 89 87 85 84 83 84 88 88 83 80 80 80 78 77 78 78 77 75 72 69 67 67 68 71 73 75 81 87 91 94 97 96 95 95 95 96 98 99 98 97 94 91
87 87 86 82 79 76 73 71 75 82 82 78 78 78 76 72 72 80 91 97 97 98 100 100 97 92 89 87 87 89 92 91 89 87 85 86 89 90 90 87 83 83 85 84 84 84 84 82 80 78 75 73 72 71 72 75 78 81 84 90 94 97 99 100 99 98 95 95 98 99 98 97 94 91
87 86 86 84 80 76 76 75 73 74 75 75 76 75 74 80 90 95 95 94 95 97 99 99 96 91 89 91 91 88 88 90 92 93 94 96 96 95 92 90 90 90 90 92 93 91 87 83 81 79 77 76 75 73 73 75 80 84 88 91 95 98 99 100 100 100 98 97 98 98 96 94 91 90
87 86 85 84 81 79 80 80 75 70 69 66 67 73 81 87 88 86 84 85 86 85 84 86 86 84 84 88 91 90 92 97 99 100 100 100 99 100 99 98 97 96 96 97 97 93 87 82 79 77 76 74 72 71 73 76 82 87 91 93 96 97 98 99 100 100 100 100 99 97 95 92 89 89
87 86 84 81 80 80 79 79 76 70 65 65 67 73 81 85 83 81 80 77 75 75 79 84 87 88 91 94 97 97 98 100 100 100 101 101 100 101 101 97 95 93 89 88 90 90 85 81 78 76 75 74 73 73 74 77 82 86 90 93 95 97 98 99 100 101 100 100 101 99 96 93 89 89
87 86 82 78 79 80 77 78 78 71 68 76 81 78 80 84 84 83 83 83 84 89 95 98 99 99 101 101 102 103 102 102 102 100 99 100 100 100 98 93 88 82 78 77 82 85 83 80 79 77 76 78 77 77 77 78 82 85 89 92 93 94 96 97 99 101 100 100 100 97 94 94 92 91
86 84 81 79 79 79 75 76 86 88 81 80 83 84 87 89 88 87 88 89 93 97 100 101 99 98 96 94 93 89 81 83 95 103 101 100 101 101 98 93 85 79 76 77 80 85 86 84 83 81 82 83 83 84 85 83 83 85 88 91 94 94 95 97 99 100 100 101 100 96 94 95 95 93
85 83 81 79 79 79 73 74 86 95 92 89 91 92 93 93 90 88 87 89 94 94 93 90 85 76 65 55 50 45 39 46 74 98 101 97 100 102 98 94 89 83 80 81 86 91 90 88 87 85 84 83 80 80 80 77 77 82 85 89 92 94 95 96 99 100 100 100 100 99 97 95 95 95
86 85 84 82 77 71 71 78 87 94 98 98 95 91 91 93 91 88 89 95 97 96 94 87 68 46 33 28 28 31 32 36 51 69 76 81 95 102 98 95 95 92 87 86 90 95 93 89 88 86 87 89 80 70 70 73 75 79 82 83 84 87 90 92 95 99 101 100 100 101 100 97 97 96
89 89 90 89 82 75 78 88 94 96 98 95 90 87 90 92 91 92 96 99 101 102 96 75 45 25 23 28 30 31 35 39 45 54 62 73 90 102 102 100 99 96 90 84 89 96 95 92 90 88 91 94 86 75 73 76 77 79 81 81 81 85 90 92 93 96 100 101 100 100 99 97 96 95
93 95 96 94 92 92 94 97 98 99 97 96 95 91 89 91 95 97 99 101 101 91 67 39 23 22 26 28 29 31 36 41 48 55 61 68 78 90 100 103 100 96 90 85 91 101 101 97 96 93 91 91 87 81 79 77 76 78 81 82 83 86 92 96 96 96 99 100 100 100 98 95 92 89
95 97 96 93 96 100 99 98 101 100 96 98 101 97 94 97 100 100 100 97 81 55 32 22 23 28 30 29 28 32 36 41 48 54 58 62 68 76 86 95 100 100 93 85 90 102 104 101 100 97 94 92 88 85 83 80 77 77 79 83 85 87 92 97 99 99 100 100 99 99 97 92 89 86
97 98 96 93 96 100 99 100 101 96 94 97 100 99 100 100 100 97 88 68 43 26 23 27 27 28 34 36 34 34 38 41 46 50 52 55 59 63 68 76 85 90 87 84 90 101 104 103 101 99 98 97 94 92 89 84 79 77 81 85 89 93 93 94 99 101 100 100 99 96 95 93 89 84
95 96 94 93 97 101 101 100 94 91 95 100 100 101 101 98 91 79 57 35 24 24 28 30 30 33 38 40 40 41 42 41 42 46 47 49 55 60 65 70 74 78 81 86 94 100 103 102 102 101 100 101 101 98 92 87 83 82 84 87 90 93 91 90 97 102 100 100 99 92 90 91 88 83
89 89 90 95 101 101 97 94 91 92 99 102 100 98 93 83 67 47 30 24 26 29 31 33 36 37 38 41 44 44 42 42 45 46 43 42 47 56 65 71 74 75 79 85 91 97 101 102 102 101 100 101 101 97 93 89 87 86 89 90 89 87 85 87 95 101 100 101 97 87 84 85 84 86
88 91 96 100 100 96 93 94 96 99 101 101 98 90 73 56 41 29 25 27 29 30 34 36 38 38 38 38 39 40 43 47 50 53 53 49 49 55 65 72 70 68 72 79 84 91 97 101 103 102 101 101 101 99 96 94 91 89 90 93 92 89 87 89 97 101 100 99 93 86 85 83 79 85
96 99 101 100 97 95 97 99 100 101 100 98 93 78 54 37 30 28 27 28 30 35 37 35 36 38 37 35 35 39 46 50 51 57 65 66 62 62 69 76 70 62 64 72 79 85 91 97 101 102 101 101 100 99 99 100 98 95 93 94 97 95 89 90 98 101 99 98 93 89 91 89 83 88
101 100 101 101 99 99 100 100 100 100 98 92 79 59 40 31 31 30 29 30 34 37 36 35 35 35 34 36 38 41 46 49 50 54 62 68 70 69 73 78 73 64 64 69 74 78 83 89 95 99 100 102 100 97 98 99 98 97 97 96 98 98 94 95 100 100 97 98 98 94 96 96 92 94
101 101 101 101 100 100 100 101 99 94 87 76 59 42 34 33 32 29 30 33 36 35 33 33 36 36 38 39 41 45 49 49 48 53 59 64 68 71 75 78 73 68 69 73 74 75 78 82 87 88 92 99 101 97 95 97 95 96 99 98 97 99 100 100 101 98 94 96 98 96 98 100 98 99
99 101 100 100 100 101 100 98 91 81 68 55 43 37 36 34 30 29 32 34 34 34 33 34 37 41 43 43 44 51 56 52 48 53 60 64 69 74 78 78 73 69 70 72 72 74 76 81 85 81 78 86 97 97 95 97 99 98 99 100 99 99 100 100 100 99 96 96 98 98 98 100 100 100
100 100 100 100 100 100 99 90 78 69 57 44 37 36 35 32 29 30 33 34 33 32 33 35 38 42 45 48 50 55 59 59 56 55 59 65 71 75 78 79 77 73 71 70 70 71 76 84 92 89 80 79 88 92 89 93 101 102 99 99 101 100 100 100 100 101 99 98 99 97 95 98 101 100
101 100 99 101 100 101 98 86 74 65 52 39 35 34 31 30 31 31 33 35 34 33 33 36 39 42 45 48 49 51 56 61 63 62 64 69 73 74 75 76 75 73 71 69 67 68 75 85 94 97 92 86 87 88 84 84 95 103 101 99 100 100 99 99 99 100 100 99 99 98 96 97 100 99
100 98 97 99 100 99 91 80 73 65 48 35 32 30 27 28 30 31 33 35 34 34 36 38 40 43 45 44 43 46 52 60 67 71 73 74 76 78 79 78 76 75 73 69 63 63 72 84 92 96 96 94 94 94 87 80 84 95 100 101 101 100 100 99 98 97 99 99 99 99 99 99 100 100
95 98 97 97 98 94 81 71 70 64 46 33 30 28 26 29 30 31 34 36 35 35 38 40 41 43 44 44 43 45 51 58 65 70 74 78 82 84 84 84 81 77 73 68 62 60 66 79 90 96 97 99 99 98 94 89 87 90 96 100 102 100 99 100 99 98 99 99 99 100 100 99 99 99
82 84 85 84 86 81 67 63 67 59 40 29 28 25 25 29 30 31 33 34 35 36 37 39 42 43 43 42 43 47 53 61 68 73 75 79 82 84 86 86 84 80 76 70 64 61 64 73 86 94 98 101 101 99 101 101 96 89 90 97 102 102 100 100 101 100 99 100 100 101 101 99 98 98
72 65 60 58 61 58 51 55 63 52 32 24 24 24 25 28 28 30 32 33 34 36 36 39 42 43 43 42 42 44 50 57 65 71 74 76 78 80 84 85 83 82 81 75 69 67 68 71 76 82 87 90 88 87 91 93 89 83 85 91 98 101 101 100 101 100 100 101 100 97 97 98 99 99
78 68 56 48 46 42 41 50 58 46 29 23 24 24 26 27 28 29 31 32 33 34 35 38 40 41 43 43 43 44 47 51 57 63 69 73 74 74 78 83 84 84 84 81 77 74 70 67 67 69 71 73 75 76 79 82 82 83 84 85 89 95 98 100 100 100 100 101 99 95 94 95 94 93
87 80 68 56 47 38 37 47 52 42 28 24 24 24 25 27 28 29 31 31 32 33 34 35 37 40 42 44 45 45 46 50 54 59 64 72 76 74 76 82 87 88 87 84 80 73 65 60 61 63 64 67 73 79 82 82 82 83 82 80 81 86 91 95 99 101 100 100 100 99 97 95 93 92
92 87 77 65 52 40 38 46 48 37 26 23 24 24 25 27 27 29 30 30 31 33 33 33 35 37 40 43 45 45 45 48 52 55 59 68 77 80 80 81 83 84 84 81 74 64 58 57 59 63 67 69 72 80 85 80 75 79 84 81 77 78 83 87 92 96 98 99 101 101 100 100 98 98
95 91 82 70 54 41 39 46 46 34 25 24 24 23 25 27 27 28 30 30 31 32 32 33 34 36 38 41 44 45 45 47 50 53 55 60 68 75 77 78 78 78 79 79 75 64 57 57 59 62 69 73 73 79 84 79 70 75 85 84 77 75 78 80 83 87 90 94 98 100 100 101 101 100
97 97 90 76 56 40 39 47 47 36 27 25 24 24 25 26 27 28 29 29 30 31 32 32 33 34 36 39 41 43 45 46 48 50 53 55 58 63 67 72 76 77 77 80 82 76 67 62 61 62 68 72 71 73 77 74 67 70 81 85 82 80 80 79 80 81 83 86 93 98 98 98 99 100
Wind_Speed
39 37 35 33 30 30 29 28 27 26 26 25 23 22 18 11 5 3 5 5 4 9 14 13 12 13 13 14 16 19 22 26 28 29 31 33 36 37 35 34 33 32 32 32 32 33 34 36 38 40 41 41 42 43 45 47 48 48 48 47 46 45 45 44 44 42 39 39 39 38 38 37 37 38
39 37 36 34 31 30 29 28 28 27 26 26 25 24 23 19 12 6 6 7 6 8 13 14 14 14 15 17 20 23 26 29 29 30 33 35 37 36 34 32 32 32 31 32 32 34 35 37 39 40 41 41 41 41 43 46 47 48 49 47 45 44 44 43 43 43 41 39 38 38 38 38 37 38
38 37 37 34 31 30 30 28 27 27 27 26 25 25 24 23 20 14 8 7 7 9 10 13 16 19 21 23 26 27 28 30 30 31 34 35 35 33 33 32 32 31 31 31 33 34 36 38 40 40 40 40 40 40 41 44 45 46 47 48 46 44 44 43 42 43 42 39 39 38 38 38 38 39
39 38 37 35 33 31 31 29 27 27 26 26 25 25 24 24 23 21 14 8 9 13 15 19 21 22 24 26 28 29 29 30 31 32 33 34 33 33 34 34 31 30 30 31 33 36 38 40 40 40 40 40 40 40 41 42 44 44 45 47 47 45 45 44 42 42 41 39 39 39 38 38 38 39
38 39 37 35 34 32 31 29 27 26 26 25 25 25 25 24 24 23 18 11 10 14 18 21 22 23 24 25 27 28 29 31 32 32 31 31 32 33 35 35 32 29 29 31 35 39 40 40 39 39 40 40 39 39 41 42 43 44 43 44 46 46 45 44 41 41 41 39 39 39 39 38 38 39
35 36 36 35 33 31 30 28 27 26 26 25 25 25 25 25 25 25 22 15 10 11 15 19 22 23 22 24 26 27 29 31 33 32 32 31 32 34 33 32 31 29 29 34 38 39 40 39 39 40 39 40 40 39 40 41 42 44 43 43 44 44 44 43 41 41 41 40 39 40 40 38 37 39
33 33 34 34 33 30 29 28 27 27 26 26 26 26 26 25 25 25 24 20 14 11 14 17 20 20 21 24 26 27 29 30 31 31 32 33 32 31 29 29 31 32 33 37 39 39 40 40 39 40 39 39 39 39 39 40 41 42 43 42 43 43 43 43 41 41 41 40 40 39 40 39 37 38
33 33 32 33 33 31 29 28 27 27 26 26 26 26 26 26 26 24 24 22 19 16 14 16 19 21 23 25 26 27 28 28 28 30 32 32 30 28 27 28 33 35 35 36 39 40 41 40 39 39 39 39 39 38 39 39 40 41 41 42 42 41 41 41 40 41 42 41 40 40 39 39 37 37
34 34 32 32 32 31 29 27 27 27 27 27 26 26 26 26 26 24 23 23 22 19 17 17 19 21 23 25 26 25 24 24 27 29 29 28 27 27 27 30 35 37 36 37 40 41 39 38 38 38 38 39 39 38 38 39 39 40 40 41 42 42 42 41 40 40 41 41 41 41 40 39 37 36
34 34 34 32 32 32 30 28 27 27 27 27 27 27 27 26 25 23 23 22 21 20 20 20 20 20 20 22 25 23 20 22 25 27 27 26 25 26 29 35 37 36 38 41 41 39 38 36 36 37 39 39 39 38 38 38 39 40 41 41 42 42 42 42 41 41 42 42 43 42 41 40 39 37
34 34 34 33 32 33 32 30 29 28 27 27 27 27 27 26 24 22 21 21 20 20 20 20 20 20 18 19 24 23 19 22 25 26 26 25 26 28 32 38 40 37 38 41 38 36 36 37 38 40 41 40 39 38 37 38 39 39 41 42 42 43 43 43 42 42 42 43 42 42 41 41 40 38
34 34 34 33 33 33 32 31 30 29 28 27 26 27 26 25 23 22 21 20 20 19 19 17 17 19 17 18 22 24 21 21 22 22 21 24 30 34 35 37 36 33 34 36 36 35 35 38 39 39 39 38 36 37 37 37 39 40 41 42 42 42 42 42 42 42 43 44 43 42 41 41 40 38
33 33 33 32 32 32 32 31 30 29 28 27 26 26 25 24 23 22 21 20 18 16 15 15 14 14 14 15 18 20 20 19 21 23 23 26 32 36 37 35 30 27 30 34 36 36 33 35 36 34 35 34 31 33 36 36 38 39 40 41 40 41 41 42 42 41 42 43 43 42 41 41 39 38
31 32 32 32 32 31 30 29 28 26 26 26 25 25 25 25 24 22 20 18 16 13 11 12 12 9 10 15 18 20 21 22 23 25 25 26 29 30 31 32 26 21 25 29 33 33 28 28 31 31 32 33 31 33 35 35 37 39 39 39 39 39 39 40 41 41 41 41 41 40 40 40 39 38
31 30 30 31 30 29 28 27 26 24 23 23 22 22 23 23 24 24 21 17 17 15 12 11 11 10 12 17 21 22 23 23 23 25 24 24 26 23 17 18 18 15 17 24 31 34 28 25 31 34 33 33 35 37 38 38 39 41 40 40 39 39 39 39 39 40 40 40 40 39 39 39 39 38
30 28 28 29 29 28 27 26 25 23 22 21 20 20 21 21 23 25 23 18 16 14 11 9 11 14 16 19 21 21 22 23 25 27 26 23 24 23 18 18 23 22 22 26 31 35 30 23 29 37 32 29 34 37 38 39 39 39 39 39 39 39 39 39 38 38 39 39 39 38 38 38 38 38
29 27 27 28 29 28 26 25 24 24 23 21 20 19 20 19 18 18 18 16 15 15 15 14 16 19 19 19 22 24 25 27 29 28 26 23 23 25 22 24 32 30 25 26 29 34 34 26 28 36 31 28 33 35 35 36 36 36 37 38 39 39 38 39 39 38 38 39 39 39 38 38 38 38
28 27 28 28 28 27 26 24 24 24 23 22 21 20 19 19 17 17 19 19 18 19 19 19 20 23 23 23 27 30 29 30 32 30 26 22 22 25 26 32 40 36 29 27 26 27 29 24 25 33 31 28 32 33 31 32 32 33 35 35 37 38 38 38 39 38 38 38 38 38 38 38 38 37
27 27 28 29 27 26 25 24 23 23 21 20 20 20 19 19 19 20 21 20 19 18 18 19 22 24 24 25 27 30 29 29 30 30 30 29 31 34 34 36 39 36 31 27 22 21 24 22 24 31 30 27 31 31 30 32 32 33 35 35 35 36 36 37 38 38 38 37 36 37 37 37 37 36
27 27 29 29 26 25 25 23 21 20 19 19 19 18 17 16 17 18 17 16 16 16 16 18 20 21 22 24 25 27 28 29 30 31 33 34 33 29 25 24 27 29 25 22 20 21 23 23 25 30 28 26 30 31 30 30 31 32 34 35 35 36 35 36 37 37 37 37 36 37 37 36 36 35
26 27 29 28 25 25 24 21 19 17 18 19 17 15 14 13 13 15 15 14 14 15 15 17 19 21 23 25 27 29 29 28 27 25 26 26 22 16 13 12 16 22 24 23 23 23 21 21 24 28 29 28 29 31 31 32 32 33 33 34 34 35 35 35 36 37 37 36 36 36 36 36 35 33
25 26 28 27 25 25 23 20 19 18 18 17 15 13 12 11 13 14 15 15 15 17 18 20 21 22 25 27 28 29 27 23 19 18 20 22 18 13 12 10 14 23 26 22 18 18 17 20 21 23 25 27 28 29 29 30 29 27 27 28 29 30 32 33 35 36 36 36 36 36 35 34 33 31
23 24 25 26 25 23 20 19 20 18 16 15 13 12 11 11 14 15 14 15 16 17 20 22 23 24 25 26 24 22 20 16 14 15 19 21 18 16 15 13 12 14 11 5 5 9 15 20 22 19 15 15 19 22 21 23 25 26 26 28 29 30 30 31 32 34 36 36 36 36 35 33 31 29
22 22 23 24 23 21 19 19 19 17 15 14 12 11 12 13 15 14 13 13 14 17 20 22 24 25 24 22 20 19 19 17 16 16 17 18 19 20 20 18 13 11 15 16 17 20 21 21 22 19 13 10 13 19 22 26 29 30 29 29 28 29 29 28 28 29 33 36 36 36 35 33 31 30
23 22 23 23 21 20 20 19 17 15 13 12 12 12 12 12 12 11 10 12 14 17 19 21 23 23 22 21 20 22 22 21 21 20 19 19 20 21 23 23 17 18 28 32 27 24 24 23 21 20 18 15 15 19 25 30 32 30 27 27 27 27 26 26 26 26 27 32 35 35 34 33 33 32
24 24 25 25 22 20 19 17 15 13 11 11 13 13 10 8 9 10 11 13 14 16 17 19 21 20 20 22 23 24 25 25 24 24 23 22 22 22 24 26 24 25 34 37 33 29 28 26 23 18 14 13 14 16 17 21 28 27 22 22 24 24 23 24 27 28 26 28 32 34 33 33 32 32
26 26 27 26 22 19 18 17 14 12 12 12 12 10 8 9 12 12 12 12 12 13 14 16 19 19 20 22 24 25 27 27 26 26 25 23 23 23 23 25 28 32 38 40 38 34 31 30 29 25 19 14 12 11 10 14 23 25 21 20 21 22 23 24 26 30 29 28 29 29 29 30 30 30
27 28 28 26 22 19 17 15 13 12 13 13 11 10 11 13 13 12 10 9 9 11 13 15 17 18 19 21 23 25 26 27 27 27 28 26 24 23 24 24 26 29 33 34 34 32 30 32 33 30 27 20 11 8 10 13 18 22 21 20 21 24 26 24 23 28 28 26 26 25 25 28 28 27
29 29 28 24 20 18 16 14 14 14 14 13 11 11 13 12 10 8 7 7 8 9 11 13 16 17 18 20 21 23 24 25 26 29 30 30 29 27 27 26 24 23 24 26 27 26 25 27 29 28 28 25 17 14 15 14 15 20 19 16 20 28 32 27 22 24 24 23 24 26 27 28 27 26
27 27 26 22 19 17 16 17 18 17 13 12 11 11 10 9 7 5 4 5 6 8 10 12 14 16 18 19 20 22 23 23 25 28 30 31 32 32 31 29 27 23 20 20 22 23 23 24 26 25 26 27 22 21 21 16 13 18 19 17 18 23 27 24 20 21 21 21 23 25 26 25 25 25
26 25 23 20 19 19 19 19 19 16 13 12 12 10 8 6 5 3 3 3 5 7 9 11 13 15 17 19 20 23 23 23 24 25 26 27 29 31 29 26 25 27 27 24 22 23 25 26 24 21 23 25 22 20 21 18 12 13 19 20 17 17 20 21 18 20 21 20 20 22 23 23 24 25
26 25 23 22 22 22 20 18 16 14 13 12 11 9 7 6 4 2 2 3 4 6 8 11 13 15 16 18 21 23 23 23 25 26 26 25 26 28 25 18 18 25 30 31 29 29 32 33 26 19 18 19 13 13 14 13 10 12 17 19 17 20 25 23 17 19 19 18 18 19 21 22 24 26
29 26 24 23 22 21 19 17 15 14 14 12 11 10 8 6 4 2 1 1 3 5 7 10 12 14 17 18 20 22 23 24 26 26 26 26 26 27 23 16 16 20 23 26 30 33 37 40 31 18 11 11 8 13 18 10 9 15 17 17 17 14 13 13 15 18 19 19 18 17 19 21 22 25
29 25 22 21 20 20 19 17 16 16 15 14 12 11 9 7 5 3 1 1 2 5 7 10 12 14 16 17 19 21 23 25 26 26 25 25 25 24 21 18 19 22 21 23 27 30 36 42 38 28 20 10 6 6 17 15 13 17 18 16 16 15 12 6 5 13 18 21 17 12 13 16 19 22
25 22 19 18 18 19 19 18 18 18 17 15 14 12 10 8 5 3 2 1 2 5 7 9 11 12 14 16 17 19 20 23 25 26 26 25 24 22 20 17 18 22 23 22 24 28 31 35 33 25 21 16 5 4 12 19 20 20 19 17 19 24 25 20 9 4 13 19 17 11 7 10 15 20
21 20 19 18 18 19 18 18 19 18 17 16 15 13 11 8 6 4 2 0 2 4 6 8 10 11 13 15 16 17 19 21 22 24 26 26 25 23 22 19 19 22 23 22 24 27 28 27 23 14 8 8 6 3 8 18 24 24 20 19 24 30 31 25 15 8 2 7 13 12 7 7 12 18
19 19 19 18 19 21 19 19 19 18 16 16 15 13 11 8 7 5 3 0 2 4 6 7 9 10 12 15 16 17 18 19 19 21 22 23 23 22 20 20 21 23 23 23 24 26 26 24 20 12 6 7 7 5 9 18 24 29 28 23 24 30 33 27 17 15 15 11 5 6 5 8 15 19
20 19 18 18 20 21 20 20 20 18 17 16 15 13 11 9 7 6 3 1 1 3 5 6 8 10 11 14 16 17 18 19 19 20 21 22 21 20 18 19 21 22 23 24 23 25 27 24 19 13 8 6 4 4 7 12 17 26 33 29 26 31 35 28 17 13 16 18 14 9 5 8 15 18
22 21 20 20 21 22 21 21 20 19 18 17 15 13 12 10 8 6 4 2 1 2 4 5 7 9 10 13 15 15 17 18 18 19 21 20 19 19 19 18 19 21 22 22 22 25 27 26 25 22 16 10 9 11 11 8 11 22 32 32 27 31 35 29 21 16 18 22 18 11 8 7 10 12
19 20 21 21 22 23 22 21 20 19 18 17 15 13 12 10 8 7 5 3 1 1 3 5 7 8 9 12 14 15 15 16 16 17 19 20 19 19 19 18 19 19 18 16 18 22 24 26 29 30 25 21 19 17 14 10 10 20 31 33 30 29 30 29 26 22 21 24 20 12 9 8 7 8
17 18 19 19 20 22 22 21 19 18 17 16 15 14 13 10 8 7 5 4 2 0 2 4 6 8 9 11 13 14 15 16 17 17 18 19 20 20 19 18 19 19 15 11 13 20 24 27 29 27 23 24 22 13 7 7 8 14 25 31 32 30 28 27 27 25 25 28 23 12 7 7 8 11
17 17 17 18 19 20 21 20 19 18 17 17 16 15 13 11 9 8 7 5 4 2 1 3 5 7 9 10 11 13 14 15 16 18 18 18 19 20 20 19 18 18 15 12 15 23 26 28 30 27 23 26 24 14 6 6 7 9 18 28 32 32 29 26 25 26 28 31 27 16 8 6 5 6
18 16 16 17 17 18 19 19 18 18 18 17 17 15 13 12 11 10 8 7 5 3 2 2 3 5 7 9 10 11 13 14 15 16 17 17 17 18 19 19 18 18 17 18 22 28 29 29 30 28 25 25 24 13 5 5 8 9 14 22 31 36 33 28 27 28 29 30 29 24 18 13 8 5
18 17 16 16 16 18 19 18 17 17 18 17 17 15 14 13 12 10 9 7 5 4 3 2 2 4 6 7 8 10 11 13 14 15 16 17 17 16 17 19 19 19 20 21 24 28 31 31 29 26 22 22 21 15 8 7 10 12 14 19 28 36 37 33 29 28 29 31 31 28 25 23 19 15
19 18 17 16 16 17 18 18 17 17 18 17 17 16 14 13 12 11 10 8 7 5 4 3 3 3 5 6 8 9 11 11 13 14 15 16 17 17 18 19 20 20 21 22 22 23 27 30 29 26 22 20 20 19 15 12 12 14 15 17 23 29 32 31 27 24 24 28 31 28 26 24 23 22
Wind_Direction
222 221 220 217 217 220 220 220 220 221 222 223 224 223 219 220 232 264 264 250 234 249 255 258 269 269 261 265 277 284 288 290 291 292 292 292 292 292 291 290 289 287 286 287 287 288 289 290 291 292 292 290 289 288 286 285 283 280 278 277 278 280 280 281 280 280 278 278 281 283 282 284 283 282
221 220 220 218 217 218 218 219 220 220 221 221 223 225 223 223 224 234 266 263 238 243 252 250 255 264 265 273 282 285 289 291 291 291 291 291 291 291 289 287 286 285 285 285 286 288 289 289 291 290 290 289 287 287 287 285 284 280 278 278 278 279 278 277 277 276 274 275 278 280 278 279 280 279
218 217 218 217 216 217 217 217 219 220 222 222 222 223 223 225 227 228 246 268 241 229 248 257 262 270 274 279 285 287 288 290 291 290 290 291 290 288 286 284 283 283 283 283 285 287 289 289 289 288 288 287 286 286 286 286 285 282 281 279 277 277 277 275 275 274 273 273 275 277 276 275 277 276
217 216 216 216 215 216 216 216 218 220 222 223 222 222 223 225 229 230 234 254 253 245 260 272 274 277 279 282 286 288 289 290 291 290 289 290 289 287 285 284 282 281 281 282 284 287 289 288 287 286 285 285 285 285 286 285 285 283 282 281 278 276 276 275 274 274 274 273 272 274 274 272 273 273
216 216 215 215 216 217 216 215 217 219 221 222 222 222 223 224 227 229 230 244 264 261 265 272 276 279 281 283 286 289 290 292 292 291 289 289 288 286 285 284 282 279 279 282 285 287 288 286 285 284 284 285 285 284 284 285 285 284 281 280 279 276 274 275 275 274 273 272 270 270 271 270 270 270
216 215 213 213 214 215 215 215 216 219 219 219 221 221 222 225 227 228 232 242 260 267 267 271 277 280 280 281 286 288 289 292 293 291 290 289 288 285 283 281 280 279 281 285 286 286 286 285 284 283 283 284 284 282 282 283 284 284 282 280 279 277 275 275 275 274 272 270 269 267 269 270 268 268
214 213 212 211 210 210 213 214 216 219 219 218 220 221 222 225 228 229 233 240 253 269 272 272 275 279 280 282 287 288 288 290 289 289 290 290 287 282 279 277 279 282 286 287 285 285 285 284 283 282 281 281 281 281 282 282 282 282 281 279 278 277 276 274 274 273 269 268 267 266 267 268 267 267
213 213 212 209 207 207 209 212 214 216 217 218 220 222 223 226 229 231 234 241 251 263 273 275 273 278 281 283 287 290 289 287 285 287 290 289 285 279 276 277 282 287 288 286 284 284 283 283 281 280 279 279 279 279 280 280 280 279 278 277 275 274 274 272 271 269 266 266 265 265 266 266 267 267
212 213 212 208 205 204 206 208 211 214 216 218 220 221 224 225 228 232 237 244 251 257 269 278 278 280 281 283 287 288 286 286 288 290 288 285 282 278 277 281 286 290 289 286 285 284 281 280 278 277 277 277 277 277 277 277 278 278 276 275 272 271 270 268 267 265 264 263 262 263 264 265 267 267
213 212 212 209 205 204 205 206 209 213 215 217 218 220 223 225 228 233 240 246 251 256 267 276 278 278 277 284 290 287 282 285 291 292 291 286 281 279 284 289 290 290 289 286 284 283 281 278 276 276 276 276 275 275 275 276 277 277 275 273 270 268 266 264 263 263 261 261 259 260 262 262 264 265
213 213 212 210 206 206 207 207 210 212 214 216 218 220 223 225 228 233 240 245 250 258 268 270 272 274 272 278 289 290 286 285 286 289 292 292 287 285 289 292 293 291 289 286 282 279 278 277 276 276 275 274 273 273 274 274 276 276 274 273 269 266 265 261 260 259 258 259 258 258 260 261 261 261
213 213 212 210 208 208 209 211 212 213 214 214 216 220 224 225 228 233 238 245 252 259 264 263 265 271 269 272 283 287 286 286 284 284 288 290 292 295 294 292 292 291 286 284 282 279 278 277 277 276 273 272 270 270 271 273 275 275 273 271 268 265 263 260 258 257 255 256 257 257 258 259 259 259
212 212 211 210 209 209 211 214 217 218 219 219 218 220 222 223 228 233 236 244 250 252 256 258 261 266 267 274 284 285 282 282 284 288 290 290 293 299 298 291 288 285 282 282 282 280 278 277 277 275 272 271 270 270 271 271 273 274 271 269 267 263 261 259 256 256 254 254 255 255 257 257 257 257
211 210 210 209 209 210 213 215 217 219 221 223 225 227 227 227 229 231 235 241 244 243 248 254 257 260 268 279 285 283 283 285 287 292 295 294 295 299 297 291 287 282 278 280 282 280 278 276 276 273 269 270 273 272 270 270 273 273 269 267 266 263 261 259 255 254 253 253 254 254 255 256 255 255
208 208 208 208 207 208 210 212 214 214 215 217 222 227 231 232 233 233 233 235 237 240 243 243 251 264 275 283 285 284 288 290 291 293 294 293 295 295 293 293 294 289 284 285 286 284 281 278 276 274 271 271 274 272 270 274 276 273 267 265 264 262 261 259 255 253 252 251 252 253 253 254 254 253
205 203 203 204 204 205 208 210 210 210 211 215 219 223 229 233 237 236 233 233 238 246 254 258 267 276 281 287 287 286 291 294 293 293 288 284 285 283 280 283 285 288 293 292 288 285 283 282 278 276 274 271 271 272 275 279 278 272 267 264 262 261 260 259 256 253 251 250 250 251 251 252 254 253
204 201 200 200 201 204 207 209 211 211 211 215 219 225 230 232 235 237 237 246 259 270 278 279 278 279 282 286 286 288 294 295 291 288 279 270 268 267 268 277 282 287 293 292 290 286 284 282 278 276 275 273 273 275 279 280 277 272 268 265 262 261 259 258 257 253 251 250 249 250 251 251 252 253
203 201 198 196 198 202 205 206 209 212 212 216 220 224 228 230 235 242 250 260 271 275 276 275 275 279 280 281 284 288 290 286 281 279 276 274 273 271 275 283 283 284 285 283 284 284 282 283 279 275 276 277 277 277 278 279 277 273 270 267 264 262 259 258 257 254 251 249 248 249 250 249 250 251
203 201 198 196 195 199 203 204 206 210 213 216 219 221 225 231 240 251 260 269 275 275 272 270 271 275 277 281 286 289 291 288 284 284 285 287 289 289 289 287 282 281 280 273 266 271 279 282 280 277 279 282 281 278 276 277 276 273 271 268 264 263 260 258 256 254 251 250 247 247 248 249 249 249
202 201 200 197 196 198 200 201 202 207 211 210 209 214 224 236 250 261 268 270 271 271 271 272 275 278 284 289 291 293 295 295 293 293 292 289 291 292 289 286 282 282 281 267 253 263 278 279 277 280 283 283 281 279 276 274 274 272 270 268 266 264 262 258 256 253 250 248 246 246 246 248 248 248
201 202 201 198 195 197 199 198 193 194 200 202 204 213 227 242 256 264 266 263 263 267 272 278 282 285 289 292 294 295 295 294 295 296 291 288 293 292 284 285 286 284 285 277 259 258 272 278 278 282 286 283 280 280 279 276 276 274 272 270 268 266 263 260 255 253 250 247 244 244 244 246 247 248
198 200 200 198 195 197 199 196 188 185 188 193 200 211 223 236 248 255 260 260 263 269 274 280 283 288 293 297 298 297 295 293 294 289 283 285 291 285 273 279 290 291 292 287 265 252 266 280 282 287 292 289 282 280 280 279 278 277 276 276 274 270 266 261 256 251 248 246 243 241 242 243 245 247
192 193 195 196 199 200 196 188 184 183 185 190 199 208 212 226 242 251 258 262 269 276 282 289 296 301 307 307 305 304 304 304 301 289 285 289 284 273 271 276 289 297 295 289 290 286 285 287 286 287 293 296 291 287 284 283 283 282 281 282 280 275 270 264 258 252 246 243 242 239 239 240 240 243
184 186 188 191 196 195 186 180 180 182 188 195 200 205 212 227 242 253 258 262 273 283 290 300 309 313 315 314 316 323 327 328 325 312 305 298 281 270 271 273 274 273 266 272 295 300 292 287 286 283 277 278 291 295 291 286 285 282 280 280 278 274 270 264 258 253 245 241 239 237 237 236 235 237
176 178 183 185 185 182 177 177 179 181 187 190 193 204 218 231 240 246 253 262 276 289 299 311 315 316 320 326 334 339 337 336 334 325 318 310 294 278 271 270 269 268 272 279 288 291 286 285 285 283 278 268 271 285 290 287 283 280 277 276 273 269 267 263 259 254 246 239 238 235 233 233 231 231
174 177 181 180 177 175 175 176 177 177 181 185 193 205 211 215 224 238 257 272 286 300 311 318 319 322 332 338 342 343 339 337 336 330 325 320 310 295 281 272 267 268 278 288 292 286 280 278 278 279 277 271 269 276 285 288 286 285 280 272 268 266 269 270 263 255 244 236 234 232 229 229 229 229
174 177 179 176 173 172 171 171 172 171 174 179 183 189 195 210 230 250 268 281 298 315 323 323 323 331 341 342 340 341 339 338 339 335 333 330 324 316 303 290 280 277 284 293 295 287 276 272 273 272 266 266 274 275 274 281 287 290 285 275 271 269 273 277 265 252 244 235 230 228 225 226 228 228
176 178 178 174 170 168 165 167 169 167 171 174 172 183 208 228 245 260 274 294 317 325 326 327 330 337 342 340 338 338 338 340 342 341 339 338 335 329 319 308 298 292 293 297 296 292 284 276 276 274 266 263 269 278 277 275 277 283 286 287 283 275 276 280 265 247 241 233 225 220 217 220 222 223
181 181 177 169 165 164 162 165 163 157 160 168 181 204 223 238 253 263 280 315 330 327 328 333 334 337 341 340 339 339 340 344 348 347 346 346 346 342 332 321 312 305 303 303 303 304 298 286 283 282 276 270 267 267 274 277 277 278 280 283 286 284 285 284 265 241 230 222 217 213 211 213 213 214
180 176 170 164 162 163 163 164 161 157 159 171 191 214 231 241 252 266 294 326 333 331 336 337 335 338 344 345 346 347 347 349 351 350 349 348 347 347 341 331 325 321 318 319 319 320 316 304 292 285 278 272 266 261 261 263 274 280 275 269 274 285 289 282 255 229 218 212 209 209 210 211 209 211
166 161 157 156 158 158 159 162 166 170 180 191 203 218 233 236 240 269 307 326 339 341 342 342 342 346 350 351 353 354 351 351 354 355 352 346 344 345 342 333 328 330 331 333 335 334 334 328 315 299 284 272 269 275 271 259 261 276 274 269 262 261 274 275 246 217 210 206 202 206 209 208 208 212
151 151 148 148 153 157 158 162 170 180 192 202 210 217 221 221 225 256 318 336 346 343 345 350 351 352 356 357 356 356 353 353 357 359 357 351 344 345 345 335 327 330 332 336 342 344 347 347 340 325 300 274 276 331 322 278 275 294 285 281 276 258 256 257 232 204 203 203 200 202 204 204 209 212
147 146 147 149 153 156 158 164 172 184 192 197 202 207 208 208 213 221 280 333 346 349 357 0 357 355 358 359 358 357 354 355 360 2 1 357 352 350 348 338 330 332 329 331 338 344 351 357 359 358 332 274 270 3 2 331 315 326 311 302 304 290 263 237 209 196 201 207 203 196 195 200 208 211
148 147 149 152 157 160 163 169 176 183 189 190 193 199 200 199 203 203 211 292 357 9 8 4 360 358 359 358 358 358 354 354 360 3 1 0 358 355 349 339 336 339 335 332 337 342 349 355 1 9 8 340 267 338 360 355 341 331 323 317 320 333 354 358 220 203 206 211 202 180 182 199 207 208
148 151 153 155 163 168 171 178 183 185 188 190 192 194 191 191 197 196 197 270 5 19 14 7 2 1 1 359 359 359 355 352 356 0 1 3 1 357 351 341 335 338 338 335 338 343 348 351 353 357 3 358 322 287 351 2 1 347 339 342 347 353 359 359 347 238 214 210 195 171 173 200 204 203
151 158 160 161 169 174 178 187 189 189 190 191 192 193 187 184 190 191 186 256 15 19 13 8 4 2 3 4 4 4 1 357 355 357 360 1 0 357 353 348 342 342 341 338 338 343 347 348 346 345 350 352 353 342 342 356 6 7 357 347 352 357 357 356 6 28 20 201 181 172 177 189 195 200
154 164 166 168 175 180 186 192 192 192 194 193 193 193 187 182 185 186 187 196 29 21 9 6 5 4 6 8 9 10 7 2 358 357 358 359 359 357 354 349 346 344 342 339 341 346 348 346 345 350 351 339 342 344 328 334 352 9 11 359 348 354 359 0 10 23 17 21 78 124 142 160 174 188
160 167 171 175 181 185 190 194 193 193 194 193 193 192 186 183 184 182 179 179 46 21 9 5 4 5 9 11 12 12 9 5 1 359 359 360 359 357 352 346 344 343 341 341 345 351 353 351 347 346 352 351 333 321 331 332 340 358 9 6 352 353 3 8 5 360 2 8 21 39 72 140 159 172
168 173 176 182 187 189 193 195 194 194 193 192 192 191 185 184 185 182 175 168 127 18 6 4 4 6 11 15 16 15 10 6 2 359 358 359 357 354 350 346 343 343 343 344 348 353 356 354 348 342 339 338 320 306 306 302 310 341 2 13 8 0 4 8 4 360 2 1 4 19 51 93 132 151
173 178 183 188 190 192 195 196 195 195 194 191 191 189 186 185 185 183 185 187 165 16 359 0 2 4 10 14 16 18 15 9 4 359 357 358 358 356 353 349 347 346 345 343 347 352 353 349 346 343 337 332 328 316 305 301 316 342 0 16 23 17 11 11 11 11 6 1 4 21 40 45 66 88
177 182 188 193 194 194 196 196 196 196 195 192 191 189 187 187 186 185 189 198 200 263 347 355 357 359 6 12 15 16 14 10 7 4 1 359 358 358 358 356 353 352 352 346 342 344 344 345 349 351 349 349 353 356 349 348 350 346 351 2 17 26 28 24 22 23 19 16 19 25 22 17 36 49
186 190 195 198 199 198 198 197 196 195 194 192 193 192 189 188 191 194 197 201 203 219 308 344 351 352 358 6 12 14 14 11 6 3 3 1 359 358 359 360 356 352 349 340 334 337 343 352 359 3 4 5 10 19 25 6 356 341 343 353 6 20 31 35 33 33 34 33 32 30 16 1 13 33
191 197 202 204 203 201 200 199 198 196 195 195 195 194 191 191 195 200 202 203 205 215 250 311 343 347 351 1 8 10 13 13 8 4 3 3 1 357 355 354 353 352 348 342 342 348 355 2 6 8 10 12 12 13 10 1 358 349 345 354 3 11 20 31 38 41 45 48 46 43 38 35 37 41
196 203 207 208 206 202 201 201 200 199 199 198 196 195 195 196 200 203 203 205 209 218 236 272 315 335 346 357 3 5 10 13 10 6 5 4 3 1 358 355 355 356 356 353 352 356 1 4 7 12 14 12 9 4 351 354 3 355 348 358 7 9 10 16 25 32 38 43 46 47 47 49 54 57
201 207 210 211 209 204 202 202 202 202 203 202 200 200 200 199 201 205 207 208 212 218 233 256 283 318 339 349 354 359 4 8 8 8 8 8 6 5 4 2 360 358 0 1 357 355 357 1 6 12 13 11 11 8 357 354 4 3 355 358 6 7 6 9 12 13 17 25 33 41 47 51 54 58